Year,Month,Day,Hour,Minute,Value (Times are PST for temperature in C)
2010,05,07,00,00,7.20
2010,05,07,00,01,7.20
2010,05,07,00,02,7.20
2010,05,07,00,03,7.20
2010,05,07,00,04,7.20
2010,05,07,00,05,7.20
2010,05,07,00,06,7.20
2010,05,07,00,07,7.10
2010,05,07,00,08,7.10
2010,05,07,00,09,7.10
2010,05,07,00,10,7.00
2010,05,07,00,11,7.00
2010,05,07,00,12,6.90
2010,05,07,00,13,6.90
2010,05,07,00,14,6.80
2010,05,07,00,15,6.80
2010,05,07,00,16,6.80
2010,05,07,00,17,6.70
2010,05,07,00,18,6.70
2010,05,07,00,19,6.70
2010,05,07,00,20,6.70
2010,05,07,00,21,6.70
2010,05,07,00,22,6.70
2010,05,07,00,23,6.70
2010,05,07,00,24,6.70
2010,05,07,00,25,6.70
2010,05,07,00,26,6.70
2010,05,07,00,27,6.60
2010,05,07,00,28,6.60
2010,05,07,00,29,6.60
2010,05,07,00,30,6.60
2010,05,07,00,31,6.60
2010,05,07,00,32,6.60
2010,05,07,00,33,6.60
2010,05,07,00,34,6.60
2010,05,07,00,35,6.60
2010,05,07,00,36,6.50
2010,05,07,00,37,6.50
2010,05,07,00,38,6.50
2010,05,07,00,39,6.50
2010,05,07,00,40,6.50
2010,05,07,00,41,6.50
2010,05,07,00,42,6.50
2010,05,07,00,43,6.50
2010,05,07,00,44,6.50
2010,05,07,00,45,6.50
2010,05,07,00,46,6.60
2010,05,07,00,47,6.60
2010,05,07,00,48,6.70
2010,05,07,00,49,6.70
2010,05,07,00,50,6.70
2010,05,07,00,51,6.70
2010,05,07,00,52,6.80
2010,05,07,00,53,6.90
2010,05,07,00,54,6.90
2010,05,07,00,55,7.00
2010,05,07,00,56,7.00
2010,05,07,00,57,7.10
2010,05,07,00,58,7.10
2010,05,07,00,59,7.20
2010,05,07,01,00,7.20
2010,05,07,01,01,7.20
2010,05,07,01,02,7.20
2010,05,07,01,03,7.20
2010,05,07,01,04,7.20
2010,05,07,01,05,7.10
2010,05,07,01,06,7.10
2010,05,07,01,07,7.00
2010,05,07,01,08,7.00
2010,05,07,01,09,6.90
2010,05,07,01,10,6.90
2010,05,07,01,11,6.80
2010,05,07,01,12,6.80
2010,05,07,01,13,6.80
2010,05,07,01,14,6.70
2010,05,07,01,15,6.60
2010,05,07,01,16,6.50
2010,05,07,01,17,6.50
2010,05,07,01,18,6.40
2010,05,07,01,19,6.30
2010,05,07,01,20,6.30
2010,05,07,01,21,6.30
2010,05,07,01,22,6.20
2010,05,07,01,23,6.20
2010,05,07,01,24,6.20
2010,05,07,01,25,6.10
2010,05,07,01,26,6.10
2010,05,07,01,27,6.00
2010,05,07,01,28,6.00
2010,05,07,01,29,5.90
2010,05,07,01,30,5.90
2010,05,07,01,31,5.90
2010,05,07,01,32,5.80
2010,05,07,01,33,5.80
2010,05,07,01,34,5.80
2010,05,07,01,35,5.80
2010,05,07,01,36,5.80
2010,05,07,01,37,5.80
2010,05,07,01,38,5.80
2010,05,07,01,39,5.80
2010,05,07,01,40,5.70
2010,05,07,01,41,5.70
2010,05,07,01,42,5.70
2010,05,07,01,43,5.70
2010,05,07,01,44,5.70
2010,05,07,01,45,5.60
2010,05,07,01,46,5.70
2010,05,07,01,47,5.70
2010,05,07,01,48,5.70
2010,05,07,01,49,5.70
2010,05,07,01,50,5.70
2010,05,07,01,51,5.80
2010,05,07,01,52,5.80
2010,05,07,01,53,5.80
2010,05,07,01,54,5.80
2010,05,07,01,55,5.80
2010,05,07,01,56,5.90
2010,05,07,01,57,5.90
2010,05,07,01,58,5.90
2010,05,07,01,59,5.90
2010,05,07,02,00,5.90
2010,05,07,02,01,5.90
2010,05,07,02,02,5.90
2010,05,07,02,03,5.90
2010,05,07,02,04,5.90
2010,05,07,02,05,5.90
2010,05,07,02,06,5.90
2010,05,07,02,07,5.80
2010,05,07,02,08,5.80
2010,05,07,02,09,5.80
2010,05,07,02,10,5.80
2010,05,07,02,11,5.80
2010,05,07,02,12,5.70
2010,05,07,02,13,5.70
2010,05,07,02,14,5.70
2010,05,07,02,15,5.70
2010,05,07,02,16,5.70
2010,05,07,02,17,5.60
2010,05,07,02,18,5.60
2010,05,07,02,19,5.60
2010,05,07,02,20,5.60
2010,05,07,02,21,5.50
2010,05,07,02,22,5.50
2010,05,07,02,23,5.40
2010,05,07,02,24,5.40
2010,05,07,02,25,5.40
2010,05,07,02,26,5.40
2010,05,07,02,27,5.40
2010,05,07,02,28,5.40
2010,05,07,02,29,5.30
2010,05,07,02,30,5.30
2010,05,07,02,31,5.30
2010,05,07,02,32,5.30
2010,05,07,02,33,5.30
2010,05,07,02,34,5.30
2010,05,07,02,35,5.30
2010,05,07,02,36,5.30
2010,05,07,02,37,5.30
2010,05,07,02,38,5.20
2010,05,07,02,39,5.20
2010,05,07,02,40,5.20
2010,05,07,02,41,5.20
2010,05,07,02,42,5.20
2010,05,07,02,43,5.20
2010,05,07,02,44,5.20
2010,05,07,02,45,5.20
2010,05,07,02,46,5.20
2010,05,07,02,47,5.20
2010,05,07,02,48,5.20
2010,05,07,02,49,5.20
2010,05,07,02,50,5.20
2010,05,07,02,51,5.20
2010,05,07,02,52,5.20
2010,05,07,02,53,5.20
2010,05,07,02,54,5.30
2010,05,07,02,55,5.30
2010,05,07,02,56,5.30
2010,05,07,02,57,5.30
2010,05,07,02,58,5.30
2010,05,07,02,59,5.30
2010,05,07,03,00,5.30
2010,05,07,03,01,5.30
2010,05,07,03,02,5.30
2010,05,07,03,03,5.30
2010,05,07,03,04,5.20
2010,05,07,03,05,5.20
2010,05,07,03,06,5.20
2010,05,07,03,07,5.20
2010,05,07,03,08,5.20
2010,05,07,03,09,5.20
2010,05,07,03,10,5.20
2010,05,07,03,11,5.20
2010,05,07,03,12,5.10
2010,05,07,03,13,5.10
2010,05,07,03,14,5.10
2010,05,07,03,15,5.10
2010,05,07,03,16,5.00
2010,05,07,03,17,5.00
2010,05,07,03,18,4.90
2010,05,07,03,19,4.90
2010,05,07,03,20,4.90
2010,05,07,03,21,4.90
2010,05,07,03,22,4.90
2010,05,07,03,23,4.90
2010,05,07,03,24,4.90
2010,05,07,03,25,4.90
2010,05,07,03,26,5.00
2010,05,07,03,27,5.00
2010,05,07,03,28,5.00
2010,05,07,03,29,5.00
2010,05,07,03,30,5.10
2010,05,07,03,31,5.10
2010,05,07,03,32,5.10
2010,05,07,03,33,5.10
2010,05,07,03,34,5.00
2010,05,07,03,35,5.00
2010,05,07,03,36,5.00
2010,05,07,03,37,5.00
2010,05,07,03,38,5.00
2010,05,07,03,39,4.90
2010,05,07,03,40,4.90
2010,05,07,03,41,4.90
2010,05,07,03,42,4.90
2010,05,07,03,43,4.80
2010,05,07,03,44,4.80
2010,05,07,03,45,4.80
2010,05,07,03,46,4.70
2010,05,07,03,47,4.70
2010,05,07,03,48,4.70
2010,05,07,03,49,4.70
2010,05,07,03,50,4.60
2010,05,07,03,51,4.60
2010,05,07,03,52,4.60
2010,05,07,03,53,4.60
2010,05,07,03,54,4.50
2010,05,07,03,55,4.50
2010,05,07,03,56,4.50
2010,05,07,03,57,4.50
2010,05,07,03,58,4.50
2010,05,07,03,59,4.50
2010,05,07,04,00,4.50
2010,05,07,04,01,4.50
2010,05,07,04,02,4.50
2010,05,07,04,03,4.50
2010,05,07,04,04,4.50
2010,05,07,04,05,4.50
2010,05,07,04,06,4.50
2010,05,07,04,07,4.50
2010,05,07,04,08,4.50
2010,05,07,04,09,4.50
2010,05,07,04,10,4.50
2010,05,07,04,11,4.50
2010,05,07,04,12,4.50
2010,05,07,04,13,4.50
2010,05,07,04,14,4.50
2010,05,07,04,15,4.50
2010,05,07,04,16,4.50
2010,05,07,04,17,4.50
2010,05,07,04,18,4.50
2010,05,07,04,19,4.50
2010,05,07,04,20,4.50
2010,05,07,04,21,4.50
2010,05,07,04,22,4.50
2010,05,07,04,23,4.50
2010,05,07,04,24,4.50
2010,05,07,04,25,4.50
2010,05,07,04,26,4.50
2010,05,07,04,27,4.50
2010,05,07,04,28,4.60
2010,05,07,04,29,4.60
2010,05,07,04,30,4.60
2010,05,07,04,31,4.70
2010,05,07,04,32,4.70
2010,05,07,04,33,4.70
2010,05,07,04,34,4.70
2010,05,07,04,35,4.70
2010,05,07,04,36,4.70
2010,05,07,04,37,4.70
2010,05,07,04,38,4.70
2010,05,07,04,39,4.70
2010,05,07,04,40,4.70
2010,05,07,04,41,4.70
2010,05,07,04,42,4.70
2010,05,07,04,43,4.80
2010,05,07,04,44,4.80
2010,05,07,04,45,4.80
2010,05,07,04,46,4.90
2010,05,07,04,47,5.00
2010,05,07,04,48,5.00
2010,05,07,04,49,5.10
2010,05,07,04,50,5.10
2010,05,07,04,51,5.10
2010,05,07,04,52,5.20
2010,05,07,04,53,5.20
2010,05,07,04,54,5.20
2010,05,07,04,55,5.20
2010,05,07,04,56,5.20
2010,05,07,04,57,5.20
2010,05,07,04,58,5.20
2010,05,07,04,59,5.20
2010,05,07,05,00,5.20
2010,05,07,05,01,5.20
2010,05,07,05,02,5.20
2010,05,07,05,03,5.20
2010,05,07,05,04,5.20
2010,05,07,05,05,5.20
2010,05,07,05,06,5.20
2010,05,07,05,07,5.20
2010,05,07,05,08,5.20
2010,05,07,05,09,5.20
2010,05,07,05,10,5.20
2010,05,07,05,11,5.20
2010,05,07,05,12,5.20
2010,05,07,05,13,5.20
2010,05,07,05,14,5.20
2010,05,07,05,15,5.10
2010,05,07,05,16,5.10
2010,05,07,05,17,5.10
2010,05,07,05,18,5.10
2010,05,07,05,19,5.10
2010,05,07,05,20,5.10
2010,05,07,05,21,5.10
2010,05,07,05,22,5.10
2010,05,07,05,23,5.10
2010,05,07,05,24,5.10
2010,05,07,05,25,5.10
2010,05,07,05,26,5.10
2010,05,07,05,27,5.10
2010,05,07,05,28,5.00
2010,05,07,05,29,5.00
2010,05,07,05,30,5.00
2010,05,07,05,31,4.90
2010,05,07,05,32,4.90
2010,05,07,05,33,4.90
2010,05,07,05,34,4.90
2010,05,07,05,35,4.90
2010,05,07,05,36,4.90
2010,05,07,05,37,4.90
2010,05,07,05,38,4.80
2010,05,07,05,39,4.80
2010,05,07,05,40,4.80
2010,05,07,05,41,4.80
2010,05,07,05,42,4.80
2010,05,07,05,43,4.80
2010,05,07,05,44,4.80
2010,05,07,05,45,4.80
2010,05,07,05,46,4.80
2010,05,07,05,47,4.80
2010,05,07,05,48,4.80
2010,05,07,05,49,4.90
2010,05,07,05,50,4.90
2010,05,07,05,51,4.90
2010,05,07,05,52,4.90
2010,05,07,05,53,4.90
2010,05,07,05,54,5.00
2010,05,07,05,55,5.00
2010,05,07,05,56,5.00
2010,05,07,05,57,5.10
2010,05,07,05,58,5.10
2010,05,07,05,59,5.10
2010,05,07,06,00,5.10
2010,05,07,06,01,5.10
2010,05,07,06,02,5.20
2010,05,07,06,03,5.20
2010,05,07,06,04,5.30
2010,05,07,06,05,5.30
2010,05,07,06,06,5.40
2010,05,07,06,07,5.40
2010,05,07,06,08,5.50
2010,05,07,06,09,5.60
2010,05,07,06,10,5.60
2010,05,07,06,11,5.70
2010,05,07,06,12,5.80
2010,05,07,06,13,5.80
2010,05,07,06,14,5.80
2010,05,07,06,15,5.90
2010,05,07,06,16,5.90
2010,05,07,06,17,5.90
2010,05,07,06,18,6.00
2010,05,07,06,19,6.10
2010,05,07,06,20,6.10
2010,05,07,06,21,6.20
2010,05,07,06,22,6.20
2010,05,07,06,23,6.20
2010,05,07,06,24,6.30
2010,05,07,06,25,6.30
2010,05,07,06,26,6.30
2010,05,07,06,27,6.30
2010,05,07,06,28,6.40
2010,05,07,06,29,6.40
2010,05,07,06,30,6.40
2010,05,07,06,31,6.50
2010,05,07,06,32,6.50
2010,05,07,06,33,6.60
2010,05,07,06,34,6.60
2010,05,07,06,35,6.60
2010,05,07,06,36,6.60
2010,05,07,06,37,6.70
2010,05,07,06,38,6.70
2010,05,07,06,39,6.70
2010,05,07,06,40,6.80
2010,05,07,06,41,6.80
2010,05,07,06,42,6.80
2010,05,07,06,43,6.80
2010,05,07,06,44,6.80
2010,05,07,06,45,6.90
2010,05,07,06,46,6.90
2010,05,07,06,47,6.90
2010,05,07,06,48,7.00
2010,05,07,06,49,7.00
2010,05,07,06,50,7.00
2010,05,07,06,51,7.10
2010,05,07,06,52,7.10
2010,05,07,06,53,7.10
2010,05,07,06,54,7.10
2010,05,07,06,55,7.10
2010,05,07,06,56,7.20
2010,05,07,06,57,7.20
2010,05,07,06,58,7.20
2010,05,07,06,59,7.20
2010,05,07,07,00,7.20
2010,05,07,07,01,7.20
2010,05,07,07,02,7.20
2010,05,07,07,03,7.20
2010,05,07,07,04,7.20
2010,05,07,07,05,7.30
2010,05,07,07,06,7.30
2010,05,07,07,07,7.30
2010,05,07,07,08,7.30
2010,05,07,07,09,7.30
2010,05,07,07,10,7.30
2010,05,07,07,11,7.30
2010,05,07,07,12,7.30
2010,05,07,07,13,7.30
2010,05,07,07,14,7.40
2010,05,07,07,15,7.40
2010,05,07,07,16,7.40
2010,05,07,07,17,7.40
2010,05,07,07,18,7.40
2010,05,07,07,19,7.50
2010,05,07,07,20,7.50
2010,05,07,07,21,7.50
2010,05,07,07,22,7.50
2010,05,07,07,23,7.50
2010,05,07,07,24,7.60
2010,05,07,07,25,7.60
2010,05,07,07,26,7.60
2010,05,07,07,27,7.60
2010,05,07,07,28,7.60
2010,05,07,07,29,7.60
2010,05,07,07,30,7.60
2010,05,07,07,31,7.60
2010,05,07,07,32,7.60
2010,05,07,07,33,7.60
2010,05,07,07,34,7.60
2010,05,07,07,35,7.70
2010,05,07,07,36,7.70
2010,05,07,07,37,7.80
2010,05,07,07,38,7.80
2010,05,07,07,39,7.80
2010,05,07,07,40,7.90
2010,05,07,07,41,8.00
2010,05,07,07,42,8.00
2010,05,07,07,43,8.10
2010,05,07,07,44,8.20
2010,05,07,07,45,8.20
2010,05,07,07,46,8.30
2010,05,07,07,47,8.30
2010,05,07,07,48,8.30
2010,05,07,07,49,8.40
2010,05,07,07,50,8.40
2010,05,07,07,51,8.50
2010,05,07,07,52,8.50
2010,05,07,07,53,8.50
2010,05,07,07,54,8.50
2010,05,07,07,55,8.50
2010,05,07,07,56,8.50
2010,05,07,07,57,8.50
2010,05,07,07,58,8.60
2010,05,07,07,59,8.60
2010,05,07,08,00,8.60
2010,05,07,08,01,8.60
2010,05,07,08,02,8.70
2010,05,07,08,03,8.70
2010,05,07,08,04,8.60
2010,05,07,08,05,8.60
2010,05,07,08,06,8.60
2010,05,07,08,07,8.70
2010,05,07,08,08,8.70
2010,05,07,08,09,8.70
2010,05,07,08,10,8.70
2010,05,07,08,11,8.80
2010,05,07,08,12,8.80
2010,05,07,08,13,8.80
2010,05,07,08,14,8.80
2010,05,07,08,15,8.80
2010,05,07,08,16,8.80
2010,05,07,08,17,8.90
2010,05,07,08,18,8.90
2010,05,07,08,19,8.90
2010,05,07,08,20,8.90
2010,05,07,08,21,8.90
2010,05,07,08,22,8.90
2010,05,07,08,23,9.00
2010,05,07,08,24,9.00
2010,05,07,08,25,9.00
2010,05,07,08,26,9.00
2010,05,07,08,27,9.00
2010,05,07,08,28,9.00
2010,05,07,08,29,9.10
2010,05,07,08,30,9.10
2010,05,07,08,31,9.10
2010,05,07,08,32,9.10
2010,05,07,08,33,9.10
2010,05,07,08,34,9.20
2010,05,07,08,35,9.20
2010,05,07,08,36,9.20
2010,05,07,08,37,9.30
2010,05,07,08,38,9.30
2010,05,07,08,39,9.30
2010,05,07,08,40,9.30
2010,05,07,08,41,9.30
2010,05,07,08,42,9.30
2010,05,07,08,43,9.30
2010,05,07,08,44,9.30
2010,05,07,08,45,9.30
2010,05,07,08,46,9.30
2010,05,07,08,47,9.30
2010,05,07,08,48,9.30
2010,05,07,08,49,9.40
2010,05,07,08,50,9.50
2010,05,07,08,51,9.50
2010,05,07,08,52,9.50
2010,05,07,08,53,9.60
2010,05,07,08,54,9.60
2010,05,07,08,55,9.60
2010,05,07,08,56,9.60
2010,05,07,08,57,9.60
2010,05,07,08,58,9.60
2010,05,07,08,59,9.70
2010,05,07,09,00,9.70
2010,05,07,09,01,9.80
2010,05,07,09,02,9.80
2010,05,07,09,03,9.80
2010,05,07,09,04,9.80
2010,05,07,09,05,9.90
2010,05,07,09,06,9.90
2010,05,07,09,07,9.90
2010,05,07,09,08,9.90
2010,05,07,09,09,9.90
2010,05,07,09,10,10.00
2010,05,07,09,11,10.00
2010,05,07,09,12,10.00
2010,05,07,09,13,10.10
2010,05,07,09,14,10.10
2010,05,07,09,15,10.10
2010,05,07,09,16,10.10
2010,05,07,09,17,10.10
2010,05,07,09,18,10.20
2010,05,07,09,19,10.20
2010,05,07,09,20,10.20
2010,05,07,09,21,10.10
2010,05,07,09,22,10.10
2010,05,07,09,23,10.10
2010,05,07,09,24,10.20
2010,05,07,09,25,10.20
2010,05,07,09,26,10.20
2010,05,07,09,27,10.20
2010,05,07,09,28,10.20
2010,05,07,09,29,10.30
2010,05,07,09,30,10.30
2010,05,07,09,31,10.30
2010,05,07,09,32,10.30
2010,05,07,09,33,10.30
2010,05,07,09,34,10.30
2010,05,07,09,35,10.30
2010,05,07,09,36,10.30
2010,05,07,09,37,10.30
2010,05,07,09,38,10.30
2010,05,07,09,39,10.30
2010,05,07,09,40,10.30
2010,05,07,09,41,10.30
2010,05,07,09,42,10.40
2010,05,07,09,43,10.40
2010,05,07,09,44,10.40
2010,05,07,09,45,10.40
2010,05,07,09,46,10.30
2010,05,07,09,47,10.30
2010,05,07,09,48,10.30
2010,05,07,09,49,10.30
2010,05,07,09,50,10.30
2010,05,07,09,51,10.30
2010,05,07,09,52,10.20
2010,05,07,09,53,10.20
2010,05,07,09,54,10.30
2010,05,07,09,55,10.30
2010,05,07,09,56,10.30
2010,05,07,09,57,10.30
2010,05,07,09,58,10.30
2010,05,07,09,59,10.40
2010,05,07,10,00,10.50
2010,05,07,10,01,10.60
2010,05,07,10,02,10.60
2010,05,07,10,03,10.60
2010,05,07,10,04,10.70
2010,05,07,10,05,10.70
2010,05,07,10,06,10.60
2010,05,07,10,07,10.60
2010,05,07,10,08,10.60
2010,05,07,10,09,10.70
2010,05,07,10,10,10.70
2010,05,07,10,11,10.80
2010,05,07,10,12,10.80
2010,05,07,10,13,10.80
2010,05,07,10,14,10.80
2010,05,07,10,15,10.80
2010,05,07,10,16,10.80
2010,05,07,10,17,10.80
2010,05,07,10,18,10.80
2010,05,07,10,19,10.80
2010,05,07,10,20,10.80
2010,05,07,10,21,10.80
2010,05,07,10,22,10.90
2010,05,07,10,23,11.00
2010,05,07,10,24,11.10
2010,05,07,10,25,11.20
2010,05,07,10,26,11.30
2010,05,07,10,27,11.30
2010,05,07,10,28,11.40
2010,05,07,10,29,11.40
2010,05,07,10,30,11.50
2010,05,07,10,31,11.40
2010,05,07,10,32,11.40
2010,05,07,10,33,11.30
2010,05,07,10,34,11.40
2010,05,07,10,35,11.30
2010,05,07,10,36,11.20
2010,05,07,10,37,11.10
2010,05,07,10,38,11.00
2010,05,07,10,39,10.90
2010,05,07,10,40,10.90
2010,05,07,10,41,11.00
2010,05,07,10,42,11.00
2010,05,07,10,43,11.10
2010,05,07,10,44,11.10
2010,05,07,10,45,11.10
2010,05,07,10,46,11.00
2010,05,07,10,47,11.00
2010,05,07,10,48,11.10
2010,05,07,10,49,11.20
2010,05,07,10,50,11.40
2010,05,07,10,51,11.50
2010,05,07,10,52,11.50
2010,05,07,10,53,11.60
2010,05,07,10,54,11.60
2010,05,07,10,55,11.60
2010,05,07,10,56,11.60
2010,05,07,10,57,11.60
2010,05,07,10,58,11.60
2010,05,07,10,59,11.60
2010,05,07,11,00,11.70
2010,05,07,11,01,11.70
2010,05,07,11,02,11.70
2010,05,07,11,03,11.60
2010,05,07,11,04,11.60
2010,05,07,11,05,11.60
2010,05,07,11,06,11.60
2010,05,07,11,07,11.60
2010,05,07,11,08,11.60
2010,05,07,11,09,11.50
2010,05,07,11,10,11.50
2010,05,07,11,11,11.50
2010,05,07,11,12,11.60
2010,05,07,11,13,11.60
2010,05,07,11,14,11.70
2010,05,07,11,15,11.70
2010,05,07,11,16,11.70
2010,05,07,11,17,11.60
2010,05,07,11,18,11.60
2010,05,07,11,19,11.60
2010,05,07,11,20,11.60
2010,05,07,11,21,11.70
2010,05,07,11,22,11.70
2010,05,07,11,23,11.70
2010,05,07,11,24,11.70
2010,05,07,11,25,11.70
2010,05,07,11,26,11.60
2010,05,07,11,27,11.60
2010,05,07,11,28,11.60
2010,05,07,11,29,11.70
2010,05,07,11,30,11.70
2010,05,07,11,31,11.80
2010,05,07,11,32,11.90
2010,05,07,11,33,12.00
2010,05,07,11,34,12.10
2010,05,07,11,35,12.10
2010,05,07,11,36,12.10
2010,05,07,11,37,12.10
2010,05,07,11,38,12.10
2010,05,07,11,39,12.10
2010,05,07,11,40,12.00
2010,05,07,11,41,11.90
2010,05,07,11,42,11.80
2010,05,07,11,43,11.80
2010,05,07,11,44,11.80
2010,05,07,11,45,11.90
2010,05,07,11,46,11.90
2010,05,07,11,47,12.00
2010,05,07,11,48,12.10
2010,05,07,11,49,12.10
2010,05,07,11,50,12.20
2010,05,07,11,51,12.30
2010,05,07,11,52,12.30
2010,05,07,11,53,12.30
2010,05,07,11,54,12.40
2010,05,07,11,55,12.40
2010,05,07,11,56,12.40
2010,05,07,11,57,12.40
2010,05,07,11,58,12.40
2010,05,07,11,59,12.40
2010,05,07,12,00,12.50
2010,05,07,12,01,12.50
2010,05,07,12,02,12.40
2010,05,07,12,03,12.30
2010,05,07,12,04,12.30
2010,05,07,12,05,12.40
2010,05,07,12,06,12.50
2010,05,07,12,07,12.70
2010,05,07,12,08,12.80
2010,05,07,12,09,13.00
2010,05,07,12,10,13.10
2010,05,07,12,11,13.20
2010,05,07,12,12,13.40
2010,05,07,12,13,13.60
2010,05,07,12,14,13.70
2010,05,07,12,15,13.70
2010,05,07,12,16,13.70
2010,05,07,12,17,13.60
2010,05,07,12,18,13.50
2010,05,07,12,19,13.40
2010,05,07,12,20,13.30
2010,05,07,12,21,13.30
2010,05,07,12,22,13.20
2010,05,07,12,23,13.10
2010,05,07,12,24,13.10
2010,05,07,12,25,13.00
2010,05,07,12,26,13.10
2010,05,07,12,27,13.20
2010,05,07,12,28,13.20
2010,05,07,12,29,13.10
2010,05,07,12,30,13.00
2010,05,07,12,31,12.90
2010,05,07,12,32,12.90
2010,05,07,12,33,13.00
2010,05,07,12,34,13.00
2010,05,07,12,35,13.10
2010,05,07,12,36,13.20
2010,05,07,12,37,13.20
2010,05,07,12,38,13.10
2010,05,07,12,39,13.00
2010,05,07,12,40,12.90
2010,05,07,12,41,12.80
2010,05,07,12,42,12.80
2010,05,07,12,43,12.70
2010,05,07,12,44,12.80
2010,05,07,12,45,12.90
2010,05,07,12,46,13.00
2010,05,07,12,47,13.00
2010,05,07,12,48,13.10
2010,05,07,12,49,13.10
2010,05,07,12,50,13.10
2010,05,07,12,51,13.00
2010,05,07,12,52,12.90
2010,05,07,12,53,12.80
2010,05,07,12,54,12.80
2010,05,07,12,55,12.90
2010,05,07,12,56,12.90
2010,05,07,12,57,13.00
2010,05,07,12,58,13.10
2010,05,07,12,59,13.10
2010,05,07,13,00,13.10
2010,05,07,13,01,13.10
2010,05,07,13,02,13.10
2010,05,07,13,03,13.10
2010,05,07,13,04,13.20
2010,05,07,13,05,13.20
2010,05,07,13,06,13.30
2010,05,07,13,07,13.30
2010,05,07,13,08,13.30
2010,05,07,13,09,13.40
2010,05,07,13,10,13.40
2010,05,07,13,11,13.40
2010,05,07,13,12,13.40
2010,05,07,13,13,13.40
2010,05,07,13,14,13.40
2010,05,07,13,15,13.40
2010,05,07,13,16,13.50
2010,05,07,13,17,13.60
2010,05,07,13,18,13.50
2010,05,07,13,19,13.40
2010,05,07,13,20,13.20
2010,05,07,13,21,13.10
2010,05,07,13,22,13.20
2010,05,07,13,23,13.20
2010,05,07,13,24,13.20
2010,05,07,13,25,13.20
2010,05,07,13,26,13.20
2010,05,07,13,27,13.30
2010,05,07,13,28,13.40
2010,05,07,13,29,13.40
2010,05,07,13,30,13.40
2010,05,07,13,31,13.40
2010,05,07,13,32,13.30
2010,05,07,13,33,13.30
2010,05,07,13,34,13.30
2010,05,07,13,35,13.40
2010,05,07,13,36,13.40
2010,05,07,13,37,13.40
2010,05,07,13,38,13.50
2010,05,07,13,39,13.60
2010,05,07,13,40,13.60
2010,05,07,13,41,13.70
2010,05,07,13,42,13.60
2010,05,07,13,43,13.50
2010,05,07,13,44,13.40
2010,05,07,13,45,13.30
2010,05,07,13,46,13.40
2010,05,07,13,47,13.40
2010,05,07,13,48,13.50
2010,05,07,13,49,13.60
2010,05,07,13,50,13.70
2010,05,07,13,51,13.80
2010,05,07,13,52,13.90
2010,05,07,13,53,13.90
2010,05,07,13,54,14.00
2010,05,07,13,55,14.10
2010,05,07,13,56,14.10
2010,05,07,13,57,14.10
2010,05,07,13,58,14.10
2010,05,07,13,59,14.00
2010,05,07,14,00,13.90
2010,05,07,14,01,13.80
2010,05,07,14,02,13.80
2010,05,07,14,03,13.90
2010,05,07,14,04,14.00
2010,05,07,14,05,14.10
2010,05,07,14,06,14.10
2010,05,07,14,07,14.10
2010,05,07,14,08,14.10
2010,05,07,14,09,14.10
2010,05,07,14,10,14.00
2010,05,07,14,11,14.00
2010,05,07,14,12,14.10
2010,05,07,14,13,14.10
2010,05,07,14,14,14.20
2010,05,07,14,15,14.30
2010,05,07,14,16,14.40
2010,05,07,14,17,14.50
2010,05,07,14,18,14.60
2010,05,07,14,19,14.70
2010,05,07,14,20,14.70
2010,05,07,14,21,14.80
2010,05,07,14,22,14.80
2010,05,07,14,23,14.80
2010,05,07,14,24,14.90
2010,05,07,14,25,15.00
2010,05,07,14,26,15.00
2010,05,07,14,27,15.10
2010,05,07,14,28,15.20
2010,05,07,14,29,15.10
2010,05,07,14,30,15.00
2010,05,07,14,31,15.00
2010,05,07,14,32,15.00
2010,05,07,14,33,15.00
2010,05,07,14,34,15.00
2010,05,07,14,35,15.00
2010,05,07,14,36,15.00
2010,05,07,14,37,15.00
2010,05,07,14,38,14.90
2010,05,07,14,39,14.70
2010,05,07,14,40,14.70
2010,05,07,14,41,14.60
2010,05,07,14,42,14.50
2010,05,07,14,43,14.40
2010,05,07,14,44,14.40
2010,05,07,14,45,14.30
2010,05,07,14,46,14.20
2010,05,07,14,47,14.10
2010,05,07,14,48,14.10
2010,05,07,14,49,14.10
2010,05,07,14,50,14.10
2010,05,07,14,51,14.10
2010,05,07,14,52,14.20
2010,05,07,14,53,14.20
2010,05,07,14,54,14.30
2010,05,07,14,55,14.30
2010,05,07,14,56,14.40
2010,05,07,14,57,14.50
2010,05,07,14,58,14.60
2010,05,07,14,59,14.60
2010,05,07,15,00,14.40
2010,05,07,15,01,14.30
2010,05,07,15,02,14.10
2010,05,07,15,03,14.00
2010,05,07,15,04,14.00
2010,05,07,15,05,14.00
2010,05,07,15,06,14.00
2010,05,07,15,07,14.10
2010,05,07,15,08,14.20
2010,05,07,15,09,14.30
2010,05,07,15,10,14.50
2010,05,07,15,11,14.70
2010,05,07,15,12,14.80
2010,05,07,15,13,15.00
2010,05,07,15,14,15.00
2010,05,07,15,15,15.00
2010,05,07,15,16,15.20
2010,05,07,15,17,15.20
2010,05,07,15,18,15.10
2010,05,07,15,19,15.00
2010,05,07,15,20,15.00
2010,05,07,15,21,15.00
2010,05,07,15,22,15.00
2010,05,07,15,23,15.00
2010,05,07,15,24,15.00
2010,05,07,15,25,15.00
2010,05,07,15,26,15.10
2010,05,07,15,27,15.20
2010,05,07,15,28,15.20
2010,05,07,15,29,15.10
2010,05,07,15,30,15.00
2010,05,07,15,31,15.00
2010,05,07,15,32,15.00
2010,05,07,15,33,15.00
2010,05,07,15,34,15.00
2010,05,07,15,35,14.90
2010,05,07,15,36,14.80
2010,05,07,15,37,14.80
2010,05,07,15,38,14.80
2010,05,07,15,39,14.70
2010,05,07,15,40,14.80
2010,05,07,15,41,14.80
2010,05,07,15,42,14.90
2010,05,07,15,43,14.90
2010,05,07,15,44,14.90
2010,05,07,15,45,14.90
2010,05,07,15,46,15.00
2010,05,07,15,47,15.00
2010,05,07,15,48,15.00
2010,05,07,15,49,15.00
2010,05,07,15,50,15.00
2010,05,07,15,51,15.00
2010,05,07,15,52,15.00
2010,05,07,15,53,15.00
2010,05,07,15,54,15.00
2010,05,07,15,55,15.00
2010,05,07,15,56,15.10
2010,05,07,15,57,15.10
2010,05,07,15,58,15.10
2010,05,07,15,59,15.10
2010,05,07,16,00,15.10
2010,05,07,16,01,15.00
2010,05,07,16,02,15.00
2010,05,07,16,03,15.00
2010,05,07,16,04,15.00
2010,05,07,16,05,15.00
2010,05,07,16,06,15.00
2010,05,07,16,07,15.00
2010,05,07,16,08,15.00
2010,05,07,16,09,15.00
2010,05,07,16,10,15.00
2010,05,07,16,11,15.00
2010,05,07,16,12,15.00
2010,05,07,16,13,14.90
2010,05,07,16,14,14.90
2010,05,07,16,15,14.90
2010,05,07,16,16,15.00
2010,05,07,16,17,15.00
2010,05,07,16,18,15.00
2010,05,07,16,19,15.00
2010,05,07,16,20,15.00
2010,05,07,16,21,15.00
2010,05,07,16,22,14.90
2010,05,07,16,23,14.80
2010,05,07,16,24,14.70
2010,05,07,16,25,14.60
2010,05,07,16,26,14.60
2010,05,07,16,27,14.50
2010,05,07,16,28,14.50
2010,05,07,16,29,14.60
2010,05,07,16,30,14.60
2010,05,07,16,31,14.70
2010,05,07,16,32,14.70
2010,05,07,16,33,14.70
2010,05,07,16,34,14.70
2010,05,07,16,35,14.70
2010,05,07,16,36,14.70
2010,05,07,16,37,14.70
2010,05,07,16,38,14.80
2010,05,07,16,39,14.90
2010,05,07,16,40,15.00
2010,05,07,16,41,15.00
2010,05,07,16,42,15.00
2010,05,07,16,43,15.00
2010,05,07,16,44,15.00
2010,05,07,16,45,15.00
2010,05,07,16,46,15.00
2010,05,07,16,47,15.10
2010,05,07,16,48,15.20
2010,05,07,16,49,15.20
2010,05,07,16,50,15.20
2010,05,07,16,51,15.20
2010,05,07,16,52,15.10
2010,05,07,16,53,15.00
2010,05,07,16,54,14.90
2010,05,07,16,55,14.80
2010,05,07,16,56,14.80
2010,05,07,16,57,14.90
2010,05,07,16,58,15.00
2010,05,07,16,59,15.00
2010,05,07,17,00,15.00
2010,05,07,17,01,15.00
2010,05,07,17,02,15.00
2010,05,07,17,03,15.00
2010,05,07,17,04,15.00
2010,05,07,17,05,15.00
2010,05,07,17,06,15.00
2010,05,07,17,07,15.00
2010,05,07,17,08,15.00
2010,05,07,17,09,15.00
2010,05,07,17,10,15.00
2010,05,07,17,11,15.10
2010,05,07,17,12,15.10
2010,05,07,17,13,15.10
2010,05,07,17,14,15.10
2010,05,07,17,15,15.10
2010,05,07,17,16,15.20
2010,05,07,17,17,15.20
2010,05,07,17,18,15.30
2010,05,07,17,19,15.30
2010,05,07,17,20,15.20
2010,05,07,17,21,15.30
2010,05,07,17,22,15.20
2010,05,07,17,23,15.20
2010,05,07,17,24,15.20
2010,05,07,17,25,15.20
2010,05,07,17,26,15.00
2010,05,07,17,27,15.00
2010,05,07,17,28,15.00
2010,05,07,17,29,15.00
2010,05,07,17,30,15.00
2010,05,07,17,31,15.00
2010,05,07,17,32,15.00
2010,05,07,17,33,15.00
2010,05,07,17,34,15.00
2010,05,07,17,35,15.00
2010,05,07,17,36,15.10
2010,05,07,17,37,15.10
2010,05,07,17,38,15.00
2010,05,07,17,39,15.00
2010,05,07,17,40,15.00
2010,05,07,17,41,15.00
2010,05,07,17,42,15.10
2010,05,07,17,43,15.10